Time,TemperatureF,DewpointF,PressureIn,WindDirection,WindDirectionDegrees,WindSpeedMPH,WindSpeedGustMPH,Humidity,HourlyPrecipIn,Conditions,Clouds,dailyrainin,SoftwareType,DateUTC
2013-09-30 00:01:00,60.4,58.7,30.02,SE,135,0.0,0.0,94,0.00,CLR,,0.00,WeatherDisplay:10.37,2013-09-30 04:01:00,
2013-09-30 00:07:00,60.4,58.7,30.02,SE,135,0.0,0.0,94,0.00,CLR,,0.00,WeatherDisplay:10.37,2013-09-30 04:07:00,
2013-09-30 00:12:00,60.3,58.6,30.00,SE,135,0.0,0.0,94,0.00,CLR,,0.00,WeatherDisplay:10.37,2013-09-30 04:12:00,
2013-09-30 00:17:00,60.1,58.4,30.00,SE,135,0.0,0.0,94,0.00,CLR,,0.00,WeatherDisplay:10.37,2013-09-30 04:17:00,
2013-09-30 00:22:00,60.1,58.4,30.02,SE,135,0.0,0.0,94,0.00,CLR,,0.00,WeatherDisplay:10.37,2013-09-30 04:22:00,
2013-09-30 00:27:00,60.1,58.4,30.02,SE,135,0.0,0.0,94,0.00,CLR,,0.00,WeatherDisplay:10.37,2013-09-30 04:27:00,
2013-09-30 00:32:00,59.9,58.2,30.02,SE,135,0.0,0.0,94,0.00,CLR,,0.00,WeatherDisplay:10.37,2013-09-30 04:32:00,
2013-09-30 00:37:00,59.9,58.5,30.02,SE,135,0.0,0.0,95,0.00,CLR,,0.00,WeatherDisplay:10.37,2013-09-30 04:37:00,
2013-09-30 00:42:00,59.9,58.5,30.02,East,90,3.5,3.5,95,0.00,CLR,,0.00,WeatherDisplay:10.37,2013-09-30 04:42:00,
2013-09-30 00:47:00,59.9,58.8,30.02,East,90,0.0,0.0,96,0.00,CLR,,0.00,WeatherDisplay:10.37,2013-09-30 04:47:00,
2013-09-30 00:52:00,59.9,58.8,30.02,East,90,2.0,2.0,96,0.00,CLR,,0.00,WeatherDisplay:10.37,2013-09-30 04:52:00,
2013-09-30 00:57:00,60.1,59.0,30.02,NNE,22,3.5,3.5,96,0.00,CLR,,0.00,WeatherDisplay:10.37,2013-09-30 04:57:00,
2013-09-30 01:02:00,60.3,59.2,30.00,East,90,0.0,0.0,96,0.00,CLR,,0.00,WeatherDisplay:10.37,2013-09-30 05:02:00,
2013-09-30 01:07:00,60.1,59.0,30.00,West,270,0.0,0.0,96,0.00,CLR,,0.00,WeatherDisplay:10.37,2013-09-30 05:07:00,
2013-09-30 01:12:00,60.1,59.0,30.00,ENE,68,0.0,0.0,96,0.00,CLR,,0.00,WeatherDisplay:10.37,2013-09-30 05:12:00,
2013-09-30 01:17:00,60.1,59.0,30.02,West,270,3.5,3.5,96,0.00,CLR,,0.00,WeatherDisplay:10.37,2013-09-30 05:17:00,
2013-09-30 01:22:00,60.3,59.2,29.99,North,360,0.0,0.0,96,0.00,CLR,,0.00,WeatherDisplay:10.37,2013-09-30 05:22:00,
2013-09-30 01:27:00,60.4,59.3,30.00,West,270,4.7,4.7,96,0.00,CLR,,0.00,WeatherDisplay:10.37,2013-09-30 05:27:00,
2013-09-30 01:32:00,60.6,59.2,30.00,NW,315,5.8,5.8,95,0.00,CLR,,0.00,WeatherDisplay:10.37,2013-09-30 05:32:00,
2013-09-30 01:37:00,60.8,59.4,29.99,NNW,338,4.7,4.7,95,0.00,CLR,,0.00,WeatherDisplay:10.37,2013-09-30 05:37:00,
2013-09-30 01:42:00,60.8,59.1,30.00,WNW,292,3.8,3.8,94,0.00,CLR,,0.00,WeatherDisplay:10.37,2013-09-30 05:42:00,
2013-09-30 01:47:00,61.0,59.3,30.00,NNW,338,5.8,5.8,94,0.00,CLR,,0.00,WeatherDisplay:10.37,2013-09-30 05:47:00,
2013-09-30 01:52:00,61.2,59.2,30.00,WNW,292,6.9,6.9,93,0.00,CLR,,0.00,WeatherDisplay:10.37,2013-09-30 05:52:00,
2013-09-30 01:57:00,61.2,59.2,30.00,WSW,248,6.9,6.9,93,0.00,CLR,,0.00,WeatherDisplay:10.37,2013-09-30 05:57:00,
2013-09-30 02:02:00,61.2,59.2,30.00,NW,315,5.6,0.0,93,0.00,CLR,,0.00,WeatherDisplay:10.37,2013-09-30 06:02:00,
2013-09-30 02:07:00,61.2,59.2,30.00,NNW,338,8.1,8.1,93,0.00,CLR,,0.00,WeatherDisplay:10.37,2013-09-30 06:07:00,
2013-09-30 02:12:00,61.2,58.9,30.00,NW,315,5.8,5.8,92,0.00,CLR,,0.00,WeatherDisplay:10.37,2013-09-30 06:12:00,
2013-09-30 02:17:00,61.2,58.9,30.00,ENE,68,5.8,5.8,92,0.00,CLR,,0.00,WeatherDisplay:10.37,2013-09-30 06:17:00,
2013-09-30 02:22:00,61.0,58.7,30.01,NE,45,4.7,4.7,92,0.00,CLR,,0.00,WeatherDisplay:10.37,2013-09-30 06:22:00,
2013-09-30 02:27:00,61.0,58.7,30.01,East,90,6.9,6.9,92,0.00,CLR,,0.00,WeatherDisplay:10.37,2013-09-30 06:27:00,
2013-09-30 02:32:00,61.0,58.7,30.01,NNE,22,8.1,8.1,92,0.00,CLR,,0.00,WeatherDisplay:10.37,2013-09-30 06:32:00,
2013-09-30 02:37:00,61.0,58.7,30.01,NW,315,6.9,6.9,92,0.00,CLR,,0.00,WeatherDisplay:10.37,2013-09-30 06:37:00,
2013-09-30 02:42:00,61.0,58.7,30.01,North,360,6.9,6.9,92,0.00,CLR,,0.00,WeatherDisplay:10.37,2013-09-30 06:42:00,
2013-09-30 02:47:00,61.0,58.7,30.01,NW,315,8.1,8.1,92,0.00,CLR,,0.00,WeatherDisplay:10.37,2013-09-30 06:47:00,
2013-09-30 02:52:00,61.0,58.7,29.99,ESE,112,7.4,7.4,92,0.00,CLR,,0.00,WeatherDisplay:10.37,2013-09-30 06:52:00,
2013-09-30 02:57:00,61.0,59.0,30.01,NNW,338,4.7,4.8,93,0.00,CLR,,0.00,WeatherDisplay:10.37,2013-09-30 06:57:00,
2013-09-30 03:02:00,61.0,59.0,30.01,NNW,338,8.1,8.1,93,0.00,CLR,,0.00,WeatherDisplay:10.37,2013-09-30 07:02:00,
2013-09-30 03:07:00,60.8,58.8,30.01,WNW,292,5.8,5.8,93,0.00,CLR,,0.00,WeatherDisplay:10.37,2013-09-30 07:07:00,
2013-09-30 03:12:00,60.6,58.6,30.01,NW,315,11.5,11.5,93,0.00,CLR,,0.00,WeatherDisplay:10.37,2013-09-30 07:12:00,
2013-09-30 03:17:00,60.4,58.4,29.99,NW,315,3.5,3.5,93,0.00,CLR,,0.00,WeatherDisplay:10.37,2013-09-30 07:17:00,
2013-09-30 03:22:00,60.3,58.3,29.99,WNW,292,3.5,3.5,93,0.00,CLR,,0.00,WeatherDisplay:10.37,2013-09-30 07:22:00,
2013-09-30 03:27:00,59.9,57.9,29.99,NW,315,3.8,3.8,93,0.00,CLR,,0.00,WeatherDisplay:10.37,2013-09-30 07:27:00,
2013-09-30 03:32:00,59.7,58.0,29.99,NW,315,3.5,3.5,94,0.00,CLR,,0.00,WeatherDisplay:10.37,2013-09-30 07:32:00,
2013-09-30 03:37:00,59.5,57.8,29.99,NW,315,3.5,3.5,94,0.00,CLR,,0.00,WeatherDisplay:10.37,2013-09-30 07:37:00,
2013-09-30 03:42:00,59.4,57.7,29.99,NW,315,4.7,4.7,94,0.00,CLR,,0.00,WeatherDisplay:10.37,2013-09-30 07:42:00,
2013-09-30 03:47:00,59.0,57.3,29.99,NW,315,4.6,4.6,94,0.00,CLR,,0.00,WeatherDisplay:10.37,2013-09-30 07:47:00,
2013-09-30 03:52:00,58.8,57.1,29.99,NW,315,0.0,0.0,94,0.00,CLR,,0.00,WeatherDisplay:10.37,2013-09-30 07:52:00,
2013-09-30 03:57:00,58.5,57.1,29.99,NW,315,5.8,5.8,95,0.00,CLR,,0.00,WeatherDisplay:10.37,2013-09-30 07:57:00,
2013-09-30 04:02:00,58.3,57.2,30.00,NW,315,5.8,5.8,96,0.00,CLR,,0.00,WeatherDisplay:10.37,2013-09-30 08:02:00,
2013-09-30 04:07:00,58.3,57.2,30.00,NNW,338,6.9,6.9,96,0.00,CLR,,0.00,WeatherDisplay:10.37,2013-09-30 08:07:00,
2013-09-30 04:12:00,58.3,57.5,30.00,NW,315,7.4,7.4,97,0.00,CLR,,0.00,WeatherDisplay:10.37,2013-09-30 08:12:00,
2013-09-30 04:17:00,58.3,57.5,30.00,NW,315,6.9,6.9,97,0.00,CLR,,0.00,WeatherDisplay:10.37,2013-09-30 08:17:00,
2013-09-30 04:22:00,58.3,57.5,30.00,NNW,338,8.1,8.1,97,0.00,CLR,,0.00,WeatherDisplay:10.37,2013-09-30 08:22:00,
2013-09-30 04:27:00,58.3,57.5,29.99,NW,315,8.3,8.3,97,0.00,CLR,,0.00,WeatherDisplay:10.37,2013-09-30 08:27:00,
2013-09-30 04:32:00,58.3,57.5,29.99,NNW,338,9.2,9.2,97,0.00,CLR,,0.00,WeatherDisplay:10.37,2013-09-30 08:32:00,
2013-09-30 04:37:00,58.3,57.5,30.00,WNW,292,8.1,8.1,97,0.00,CLR,,0.00,WeatherDisplay:10.37,2013-09-30 08:37:00,
2013-09-30 04:42:00,58.3,57.5,30.00,NNW,338,8.1,8.1,97,0.00,CLR,,0.00,WeatherDisplay:10.37,2013-09-30 08:42:00,
2013-09-30 04:47:00,58.3,57.5,30.00,NW,315,9.2,9.2,97,0.00,CLR,,0.00,WeatherDisplay:10.37,2013-09-30 08:47:00,
2013-09-30 04:52:00,58.5,57.7,30.00,NNW,338,8.1,8.1,97,0.00,CLR,,0.00,WeatherDisplay:10.37,2013-09-30 08:52:00,
2013-09-30 04:57:00,58.6,57.8,30.00,NNW,338,8.1,8.1,97,0.00,CLR,,0.00,WeatherDisplay:10.37,2013-09-30 08:57:00,
2013-09-30 05:03:00,58.6,57.8,30.00,NW,315,6.9,6.9,97,0.00,CLR,,0.00,WeatherDisplay:10.37,2013-09-30 09:03:00,
2013-09-30 05:08:00,58.6,57.8,30.00,NNW,338,9.2,9.2,97,0.00,CLR,,0.00,WeatherDisplay:10.37,2013-09-30 09:08:00,
2013-09-30 05:13:00,58.8,58.0,30.00,NW,315,10.4,10.4,97,0.00,CLR,,0.00,WeatherDisplay:10.37,2013-09-30 09:13:00,
2013-09-30 05:18:00,59.0,58.2,30.00,NW,315,9.2,9.2,97,0.00,CLR,,0.00,WeatherDisplay:10.37,2013-09-30 09:18:00,
2013-09-30 05:23:00,59.0,58.2,30.00,NW,315,6.9,6.9,97,0.00,CLR,,0.00,WeatherDisplay:10.37,2013-09-30 09:23:00,
2013-09-30 05:28:00,59.0,58.2,30.00,WNW,292,8.1,8.1,97,0.00,CLR,,0.00,WeatherDisplay:10.37,2013-09-30 09:28:00,
2013-09-30 05:33:00,59.2,58.3,30.00,NNW,338,9.2,9.2,97,0.00,CLR,,0.00,WeatherDisplay:10.37,2013-09-30 09:33:00,
2013-09-30 05:38:00,59.2,58.3,30.00,WNW,292,6.9,6.9,97,0.00,CLR,,0.00,WeatherDisplay:10.37,2013-09-30 09:38:00,
2013-09-30 05:43:00,59.2,58.3,30.00,WNW,292,6.9,6.9,97,0.00,CLR,,0.00,WeatherDisplay:10.37,2013-09-30 09:43:00,
2013-09-30 05:48:00,59.2,58.3,30.00,WNW,292,6.9,6.9,97,0.00,CLR,,0.00,WeatherDisplay:10.37,2013-09-30 09:48:00,
2013-09-30 05:53:00,59.2,58.3,30.00,WNW,292,6.9,6.9,97,0.00,CLR,,0.00,WeatherDisplay:10.37,2013-09-30 09:53:00,
2013-09-30 05:58:00,59.2,58.3,30.00,WNW,292,6.9,6.9,97,0.00,CLR,,0.00,WeatherDisplay:10.37,2013-09-30 09:58:00,
2013-09-30 06:03:00,59.2,58.3,30.00,WNW,292,6.9,6.9,97,0.00,CLR,,0.00,WeatherDisplay:10.37,2013-09-30 10:03:00,
2013-09-30 06:08:00,59.2,58.3,30.00,WNW,292,6.9,6.9,97,0.00,CLR,,0.00,WeatherDisplay:10.37,2013-09-30 10:08:00,
2013-09-30 06:13:00,59.2,58.3,30.02,WNW,292,6.9,6.9,97,0.00,CLR,,0.00,WeatherDisplay:10.37,2013-09-30 10:13:00,
2013-09-30 06:18:00,59.2,58.3,30.02,WNW,292,6.9,6.9,97,0.00,CLR,,0.00,WeatherDisplay:10.37,2013-09-30 10:18:00,
2013-09-30 06:23:00,59.2,58.3,30.02,WNW,292,6.9,6.9,97,0.00,CLR,,0.00,WeatherDisplay:10.37,2013-09-30 10:23:00,
2013-09-30 06:28:00,59.2,58.3,30.00,WNW,292,6.9,6.9,97,0.00,CLR,,0.00,WeatherDisplay:10.37,2013-09-30 10:28:00,
2013-09-30 06:33:00,59.2,58.3,30.00,WNW,292,6.9,6.9,97,0.00,CLR,,0.00,WeatherDisplay:10.37,2013-09-30 10:33:00,
2013-09-30 06:38:00,59.2,58.3,30.00,WNW,292,6.9,6.9,97,0.00,CLR,,0.00,WeatherDisplay:10.37,2013-09-30 10:38:00,
2013-09-30 06:43:00,59.2,58.3,30.00,WNW,292,6.9,6.9,97,0.00,CLR,,0.00,WeatherDisplay:10.37,2013-09-30 10:43:00,
2013-09-30 06:48:00,59.2,58.3,30.00,WNW,292,6.9,6.9,97,0.00,CLR,,0.00,WeatherDisplay:10.37,2013-09-30 10:48:00,
2013-09-30 06:53:00,59.2,58.3,30.00,WNW,292,6.9,6.9,97,0.00,CLR,,0.00,WeatherDisplay:10.37,2013-09-30 10:53:00,
2013-09-30 06:58:00,59.2,58.3,30.00,WNW,292,6.9,6.9,97,0.00,CLR,,0.00,WeatherDisplay:10.37,2013-09-30 10:58:00,
2013-09-30 07:03:00,59.2,58.3,30.00,WNW,292,6.9,6.9,97,0.00,CLR,,0.00,WeatherDisplay:10.37,2013-09-30 11:03:00,
2013-09-30 07:08:00,59.2,58.3,30.00,WNW,292,6.9,6.9,97,0.00,CLR,,0.00,WeatherDisplay:10.37,2013-09-30 11:08:00,
2013-09-30 07:13:00,59.2,58.3,30.00,WNW,292,6.9,6.9,97,0.00,CLR,,0.00,WeatherDisplay:10.37,2013-09-30 11:13:00,
2013-09-30 07:18:00,59.2,58.3,30.00,WNW,292,6.9,6.9,97,0.00,CLR,,0.00,WeatherDisplay:10.37,2013-09-30 11:18:00,
2013-09-30 07:23:00,59.2,58.3,30.03,WNW,292,6.9,6.9,97,0.00,CLR,,0.00,WeatherDisplay:10.37,2013-09-30 11:23:00,
2013-09-30 07:28:00,59.2,58.3,30.03,WNW,292,6.9,6.9,97,0.00,CLR,,0.00,WeatherDisplay:10.37,2013-09-30 11:28:00,
2013-09-30 07:33:00,59.2,58.3,30.03,WNW,292,6.9,6.9,97,0.00,CLR,,0.00,WeatherDisplay:10.37,2013-09-30 11:33:00,
2013-09-30 07:38:00,59.2,58.3,30.03,WNW,292,6.9,6.9,97,0.00,CLR,,0.00,WeatherDisplay:10.37,2013-09-30 11:38:00,
2013-09-30 07:43:00,59.2,58.3,30.03,WNW,292,6.9,6.9,97,0.00,CLR,,0.00,WeatherDisplay:10.37,2013-09-30 11:43:00,
2013-09-30 07:49:00,59.2,58.3,30.03,WNW,292,6.9,6.9,97,0.00,CLR,,0.00,WeatherDisplay:10.37,2013-09-30 11:49:00,
2013-09-30 07:54:00,59.2,58.3,30.03,WNW,292,6.9,6.9,97,0.00,CLR,,0.00,WeatherDisplay:10.37,2013-09-30 11:54:00,
2013-09-30 07:59:00,59.2,58.3,30.03,WNW,292,6.9,6.9,97,0.00,CLR,,0.00,WeatherDisplay:10.37,2013-09-30 11:59:00,
2013-09-30 08:04:00,59.2,58.3,30.00,WNW,292,6.9,6.9,97,0.00,CLR,,0.00,WeatherDisplay:10.37,2013-09-30 12:04:00,
2013-09-30 08:09:00,59.2,58.3,30.00,WNW,292,6.9,6.9,97,0.00,CLR,,0.00,WeatherDisplay:10.37,2013-09-30 12:09:00,
2013-09-30 08:14:00,59.2,58.3,30.00,WNW,292,6.9,6.9,97,0.00,CLR,,0.00,WeatherDisplay:10.37,2013-09-30 12:14:00,
2013-09-30 08:19:00,59.2,58.3,30.00,WNW,292,6.9,6.9,97,0.00,CLR,,0.00,WeatherDisplay:10.37,2013-09-30 12:19:00,
2013-09-30 08:24:00,59.2,58.3,30.00,WNW,292,6.9,6.9,97,0.00,CLR,,0.00,WeatherDisplay:10.37,2013-09-30 12:24:00,
2013-09-30 08:29:00,59.2,58.3,30.00,WNW,292,6.9,6.9,97,0.00,CLR,,0.00,WeatherDisplay:10.37,2013-09-30 12:29:00,
2013-09-30 08:34:00,59.2,58.3,30.00,WNW,292,6.9,6.9,97,0.00,CLR,,0.00,WeatherDisplay:10.37,2013-09-30 12:34:00,
2013-09-30 08:39:00,59.2,58.3,30.00,WNW,292,6.9,6.9,97,0.00,CLR,,0.00,WeatherDisplay:10.37,2013-09-30 12:39:00,
2013-09-30 08:44:00,59.2,58.3,30.04,WNW,292,6.9,6.9,97,0.00,CLR,,0.00,WeatherDisplay:10.37,2013-09-30 12:44:00,
2013-09-30 08:49:00,59.2,58.3,30.04,WNW,292,6.9,6.9,97,0.00,CLR,,0.00,WeatherDisplay:10.37,2013-09-30 12:49:00,
2013-09-30 08:54:00,59.2,58.3,30.04,WNW,292,6.9,6.9,97,0.00,CLR,,0.00,WeatherDisplay:10.37,2013-09-30 12:54:00,
2013-09-30 08:59:00,59.2,58.3,30.04,WNW,292,6.9,6.9,97,0.00,CLR,,0.00,WeatherDisplay:10.37,2013-09-30 12:59:00,
2013-09-30 09:04:00,59.2,58.3,30.00,WNW,292,6.9,6.9,97,0.00,CLR,,0.00,WeatherDisplay:10.37,2013-09-30 13:04:00,
2013-09-30 09:09:00,59.2,58.3,30.00,WNW,292,6.9,6.9,97,0.00,CLR,,0.00,WeatherDisplay:10.37,2013-09-30 13:09:00,
2013-09-30 09:14:00,59.2,58.3,30.05,WNW,292,6.9,6.9,97,0.00,CLR,,0.00,WeatherDisplay:10.37,2013-09-30 13:14:00,
2013-09-30 09:19:00,64.4,59.5,30.05,East,90,11.5,11.5,84,0.00,CLR,,0.00,WeatherDisplay:10.37,2013-09-30 13:19:00,
2013-09-30 09:24:00,64.9,59.6,30.05,WNW,292,11.0,11.0,83,0.00,CLR,,0.00,WeatherDisplay:10.37,2013-09-30 13:24:00,
2013-09-30 09:29:00,64.9,59.6,30.04,WNW,292,11.5,11.5,83,0.00,CLR,,0.00,WeatherDisplay:10.37,2013-09-30 13:29:00,
2013-09-30 09:34:00,65.5,59.9,30.04,NNE,22,10.4,10.4,82,0.00,CLR,,0.00,WeatherDisplay:10.37,2013-09-30 13:34:00,
2013-09-30 09:39:00,66.0,59.7,30.05,NW,315,12.7,12.7,80,0.00,CLR,,0.00,WeatherDisplay:10.37,2013-09-30 13:39:00,
2013-09-30 09:44:00,66.6,60.2,30.05,WNW,292,10.4,10.4,80,0.00,CLR,,0.00,WeatherDisplay:10.37,2013-09-30 13:44:00,
2013-09-30 09:49:00,66.7,60.3,30.05,NNW,338,8.1,8.1,80,0.00,CLR,,0.00,WeatherDisplay:10.37,2013-09-30 13:49:00,
2013-09-30 09:54:00,66.7,59.6,30.05,WNW,292,11.5,11.5,78,0.00,CLR,,0.00,WeatherDisplay:10.37,2013-09-30 13:54:00,
2013-09-30 09:59:00,67.5,60.4,30.05,ESE,112,8.1,8.1,78,0.00,CLR,,0.00,WeatherDisplay:10.37,2013-09-30 13:59:00,
2013-09-30 10:04:00,67.8,60.3,30.05,NNW,338,16.1,16.1,77,0.00,CLR,,0.00,WeatherDisplay:10.37,2013-09-30 14:04:00,
2013-09-30 10:09:00,68.0,60.5,30.05,ESE,112,9.2,9.2,77,0.00,CLR,,0.00,WeatherDisplay:10.37,2013-09-30 14:09:00,
2013-09-30 10:14:00,68.5,60.6,30.05,NE,45,15.0,15.0,76,0.00,CLR,,0.00,WeatherDisplay:10.37,2013-09-30 14:14:00,
2013-09-30 10:19:00,68.9,61.4,30.04,WNW,292,10.4,10.4,77,0.00,CLR,,0.00,WeatherDisplay:10.37,2013-09-30 14:19:00,
2013-09-30 10:24:00,68.0,60.9,30.04,East,90,9.2,9.2,78,0.00,CLR,,0.00,WeatherDisplay:10.37,2013-09-30 14:24:00,
2013-09-30 10:29:00,68.5,61.0,30.05,ENE,68,11.5,11.5,77,0.00,CLR,,0.00,WeatherDisplay:10.37,2013-09-30 14:29:00,
2013-09-30 10:34:00,68.4,60.9,30.05,WNW,292,15.0,15.0,77,0.00,CLR,,0.00,WeatherDisplay:10.37,2013-09-30 14:34:00,
2013-09-30 10:40:00,69.6,61.3,30.05,NNW,338,10.4,10.4,75,0.00,CLR,,0.00,WeatherDisplay:10.37,2013-09-30 14:40:00,
2013-09-30 10:45:00,69.8,61.9,30.04,NNW,338,10.4,10.4,76,0.00,CLR,,0.00,WeatherDisplay:10.37,2013-09-30 14:45:00,
2013-09-30 10:50:00,69.4,61.1,30.05,North,360,11.5,11.5,75,0.00,CLR,,0.00,WeatherDisplay:10.37,2013-09-30 14:50:00,
2013-09-30 10:55:00,69.1,60.8,30.04,NNW,338,15.0,15.0,75,0.00,CLR,,0.00,WeatherDisplay:10.37,2013-09-30 14:55:00,
2013-09-30 11:00:00,70.0,61.7,30.04,NNW,338,8.1,8.5,75,0.00,CLR,,0.00,WeatherDisplay:10.37,2013-09-30 15:00:00,
2013-09-30 11:05:00,69.4,60.8,30.04,WNW,292,15.0,15.0,74,0.00,CLR,,0.00,WeatherDisplay:10.37,2013-09-30 15:05:00,
2013-09-30 11:10:00,71.4,61.9,30.04,SSW,202,15.0,15.0,72,0.00,CLR,,0.00,WeatherDisplay:10.37,2013-09-30 15:10:00,
2013-09-30 11:15:00,72.9,62.1,30.04,East,90,10.1,10.1,69,0.00,CLR,,0.00,WeatherDisplay:10.37,2013-09-30 15:15:00,
2013-09-30 11:20:00,72.5,61.7,30.04,North,360,11.5,11.5,69,0.00,CLR,,0.00,WeatherDisplay:10.37,2013-09-30 15:20:00,
2013-09-30 11:25:00,72.3,62.0,30.04,East,90,9.2,9.2,70,0.00,CLR,,0.00,WeatherDisplay:10.37,2013-09-30 15:25:00,
2013-09-30 11:30:00,71.6,60.9,30.03,NW,315,13.8,13.8,69,0.00,CLR,,0.00,WeatherDisplay:10.37,2013-09-30 15:30:00,
2013-09-30 11:35:00,70.9,61.0,30.04,NW,315,6.9,6.9,71,0.00,CLR,,0.00,WeatherDisplay:10.37,2013-09-30 15:35:00,
2013-09-30 11:40:00,71.4,61.5,30.04,West,270,8.3,8.3,71,0.00,CLR,,0.00,WeatherDisplay:10.37,2013-09-30 15:40:00,
2013-09-30 11:45:00,71.1,62.0,30.03,NNW,338,11.9,11.9,73,0.00,CLR,,0.00,WeatherDisplay:10.37,2013-09-30 15:45:00,
2013-09-30 11:50:00,72.0,61.3,30.04,East,90,11.5,11.5,69,0.00,CLR,,0.00,WeatherDisplay:10.37,2013-09-30 15:50:00,
2013-09-30 11:55:00,72.1,61.0,30.02,North,360,12.7,12.7,68,0.00,CLR,,0.00,WeatherDisplay:10.37,2013-09-30 15:55:00,
2013-09-30 12:00:00,71.8,60.7,30.04,East,90,13.7,13.7,68,0.00,CLR,,0.00,WeatherDisplay:10.37,2013-09-30 16:00:00,
2013-09-30 12:05:00,72.1,61.4,30.04,ENE,68,16.1,16.1,69,0.00,CLR,,0.00,WeatherDisplay:10.37,2013-09-30 16:05:00,
2013-09-30 12:10:00,71.6,61.3,30.04,NNE,22,11.5,11.5,70,0.00,CLR,,0.00,WeatherDisplay:10.37,2013-09-30 16:10:00,
2013-09-30 12:15:00,72.3,60.7,30.03,NW,315,11.9,11.9,67,0.00,SCT,,0.00,WeatherDisplay:10.37,2013-09-30 16:15:00,
2013-09-30 12:20:00,72.0,60.4,30.03,East,90,12.7,12.7,67,0.00,SCT,,0.00,WeatherDisplay:10.37,2013-09-30 16:20:00,
2013-09-30 12:25:00,72.1,58.8,30.03,East,90,11.5,11.5,63,0.00,SCT,,0.00,WeatherDisplay:10.37,2013-09-30 16:25:00,
2013-09-30 12:30:00,72.1,59.2,30.03,NNE,22,15.0,15.0,64,0.00,SCT,,0.00,WeatherDisplay:10.37,2013-09-30 16:30:00,
2013-09-30 12:35:00,72.5,60.5,30.03,ENE,68,12.8,12.8,66,0.00,SCT,,0.00,WeatherDisplay:10.37,2013-09-30 16:35:00,
2013-09-30 12:40:00,72.7,61.1,30.03,NNW,338,15.0,15.0,67,0.00,SCT,,0.00,WeatherDisplay:10.37,2013-09-30 16:40:00,
2013-09-30 12:45:00,73.0,61.4,30.03,WNW,292,11.9,11.9,67,0.00,SCT,,0.00,WeatherDisplay:10.37,2013-09-30 16:45:00,
2013-09-30 12:50:00,72.9,60.9,30.03,WNW,292,9.2,9.2,66,0.00,SCT,,0.00,WeatherDisplay:10.37,2013-09-30 16:50:00,
2013-09-30 12:55:00,73.2,60.7,30.03,NNW,338,10.4,10.4,65,0.00,SCT,,0.00,WeatherDisplay:10.37,2013-09-30 16:55:00,
2013-09-30 13:00:00,73.4,60.9,30.03,ENE,68,8.1,8.1,65,0.00,SCT,,0.00,WeatherDisplay:10.37,2013-09-30 17:00:00,
2013-09-30 13:05:00,74.5,62.0,30.01,SW,225,8.1,8.1,65,0.00,SCT,,0.00,WeatherDisplay:10.37,2013-09-30 17:05:00,
2013-09-30 13:10:00,74.5,62.0,30.01,NW,315,15.0,15.0,65,0.00,SCT,,0.00,WeatherDisplay:10.37,2013-09-30 17:10:00,
2013-09-30 13:15:00,74.3,61.8,30.00,NW,315,11.0,11.0,65,0.00,SCT,,0.00,WeatherDisplay:10.37,2013-09-30 17:15:00,
2013-09-30 13:20:00,75.0,62.0,30.00,NNW,338,13.8,13.8,64,0.00,SCT,,0.00,WeatherDisplay:10.37,2013-09-30 17:20:00,
2013-09-30 13:25:00,75.2,62.6,30.00,ESE,112,11.0,11.0,65,0.00,SCT,,0.00,WeatherDisplay:10.37,2013-09-30 17:25:00,
2013-09-30 13:30:00,74.7,62.1,30.00,SSW,202,11.5,11.5,65,0.00,SCT,,0.00,WeatherDisplay:10.37,2013-09-30 17:30:00,
2013-09-30 13:35:00,74.7,61.7,30.00,NNW,338,11.5,11.5,64,0.00,SCT,,0.00,WeatherDisplay:10.37,2013-09-30 17:35:00,
2013-09-30 13:40:00,74.8,62.2,30.00,NNE,22,11.5,11.5,65,0.00,SCT,,0.00,WeatherDisplay:10.37,2013-09-30 17:40:00,
2013-09-30 13:45:00,75.0,62.4,30.01,NNW,338,6.9,6.9,65,0.00,SCT,,0.00,WeatherDisplay:10.37,2013-09-30 17:45:00,
2013-09-30 13:51:00,74.7,62.1,30.01,WNW,292,11.9,11.9,65,0.00,SCT,,0.00,WeatherDisplay:10.37,2013-09-30 17:51:00,
2013-09-30 13:56:00,73.9,61.8,30.01,NNW,338,11.5,11.5,66,0.00,SCT,,0.00,WeatherDisplay:10.37,2013-09-30 17:56:00,
2013-09-30 14:01:00,74.3,61.8,30.00,NNW,338,20.7,20.7,65,0.00,SCT,,0.00,WeatherDisplay:10.37,2013-09-30 18:01:00,
2013-09-30 14:06:00,74.5,62.0,29.99,East,90,10.4,10.4,65,0.00,SCT,,0.00,WeatherDisplay:10.37,2013-09-30 18:06:00,
2013-09-30 14:11:00,75.2,62.2,29.99,ESE,112,11.5,11.5,64,0.00,SCT,,0.00,WeatherDisplay:10.37,2013-09-30 18:11:00,
2013-09-30 14:16:00,75.0,62.0,30.00,NW,315,13.7,13.7,64,0.00,SCT,,0.00,WeatherDisplay:10.37,2013-09-30 18:16:00,
2013-09-30 14:21:00,75.6,62.1,30.00,NW,315,11.5,11.5,63,0.00,SCT,,0.00,WeatherDisplay:10.37,2013-09-30 18:21:00,
2013-09-30 14:26:00,75.6,62.1,30.00,NW,315,11.5,11.5,63,0.00,SCT,,0.00,WeatherDisplay:10.37,2013-09-30 18:26:00,
2013-09-30 14:31:00,75.9,61.9,30.00,NW,315,12.7,12.7,62,0.00,SCT,,0.00,WeatherDisplay:10.37,2013-09-30 18:31:00,
2013-09-30 14:36:00,75.7,61.8,30.00,NW,315,11.5,11.5,62,0.00,SCT,,0.00,WeatherDisplay:10.37,2013-09-30 18:36:00,
2013-09-30 14:41:00,74.8,60.9,30.00,NNW,338,9.2,9.2,62,0.00,SCT,,0.00,WeatherDisplay:10.37,2013-09-30 18:41:00,
2013-09-30 14:46:00,75.2,61.7,30.00,NW,315,8.1,8.1,63,0.00,SCT,,0.00,WeatherDisplay:10.37,2013-09-30 18:46:00,
2013-09-30 14:51:00,75.2,61.3,30.00,WNW,292,11.5,11.5,62,0.00,SCT,,0.00,WeatherDisplay:10.37,2013-09-30 18:51:00,
2013-09-30 14:56:00,74.5,61.1,30.00,NW,315,10.4,10.4,63,0.00,SCT,,0.00,WeatherDisplay:10.37,2013-09-30 18:56:00,
2013-09-30 15:01:00,74.3,61.3,30.00,ESE,112,14.6,14.6,64,0.00,SCT,,0.00,WeatherDisplay:10.37,2013-09-30 19:01:00,
2013-09-30 15:06:00,73.6,61.1,30.00,WNW,292,11.5,11.5,65,0.00,SCT,,0.00,WeatherDisplay:10.37,2013-09-30 19:06:00,
2013-09-30 15:11:00,74.3,61.8,30.00,NW,315,11.5,11.5,65,0.00,SCT,,0.00,WeatherDisplay:10.37,2013-09-30 19:11:00,
2013-09-30 15:16:00,73.8,61.3,30.00,NW,315,4.6,4.6,65,0.00,SCT,,0.00,WeatherDisplay:10.37,2013-09-30 19:16:00,
2013-09-30 15:21:00,74.7,61.3,29.98,NW,315,11.5,11.5,63,0.00,SCT,,0.00,WeatherDisplay:10.37,2013-09-30 19:21:00,
2013-09-30 15:26:00,74.5,62.0,29.97,North,360,6.9,6.9,65,0.00,BKN,,0.00,WeatherDisplay:10.37,2013-09-30 19:26:00,
2013-09-30 15:31:00,74.8,60.9,29.99,North,360,13.8,13.8,62,0.00,BKN,,0.00,WeatherDisplay:10.37,2013-09-30 19:31:00,
2013-09-30 15:36:00,74.5,61.1,29.97,WNW,292,11.5,11.5,63,0.00,BKN,,0.00,WeatherDisplay:10.37,2013-09-30 19:36:00,
2013-09-30 15:41:00,73.8,60.4,29.97,NW,315,10.4,10.4,63,0.00,BKN,,0.00,WeatherDisplay:10.37,2013-09-30 19:41:00,
2013-09-30 15:46:00,74.7,61.3,29.97,East,90,10.1,10.1,63,0.00,BKN,,0.00,WeatherDisplay:10.37,2013-09-30 19:46:00,
2013-09-30 15:51:00,75.4,60.5,29.99,NNE,22,12.7,12.7,60,0.00,BKN,,0.00,WeatherDisplay:10.37,2013-09-30 19:51:00,
2013-09-30 15:56:00,76.1,60.7,29.97,WNW,292,10.4,10.4,59,0.00,BKN,,0.00,WeatherDisplay:10.37,2013-09-30 19:56:00,
2013-09-30 16:01:00,75.9,61.0,29.99,NW,315,9.2,9.2,60,0.00,BKN,,0.00,WeatherDisplay:10.37,2013-09-30 20:01:00,
2013-09-30 16:06:00,75.4,60.5,29.99,WNW,292,10.4,10.4,60,0.00,BKN,,0.00,WeatherDisplay:10.37,2013-09-30 20:06:00,
2013-09-30 16:11:00,74.5,60.6,29.97,SE,135,5.8,5.8,62,0.00,BKN,,0.00,WeatherDisplay:10.37,2013-09-30 20:11:00,
2013-09-30 16:16:00,74.3,60.4,29.97,WNW,292,5.8,5.8,62,0.00,BKN,,0.00,WeatherDisplay:10.37,2013-09-30 20:16:00,
2013-09-30 16:21:00,74.1,60.2,29.97,West,270,6.9,6.9,62,0.00,SCT,,0.00,WeatherDisplay:10.37,2013-09-30 20:21:00,
2013-09-30 16:26:00,74.1,60.7,29.97,NW,315,6.5,6.5,63,0.00,SCT,,0.00,WeatherDisplay:10.37,2013-09-30 20:26:00,
2013-09-30 16:31:00,74.3,60.4,29.97,North,360,8.1,8.1,62,0.00,SCT,,0.00,WeatherDisplay:10.37,2013-09-30 20:31:00,
2013-09-30 16:36:00,74.1,59.8,29.97,North,360,10.4,10.4,61,0.00,SCT,,0.00,WeatherDisplay:10.37,2013-09-30 20:36:00,
2013-09-30 16:41:00,73.4,60.0,29.97,ENE,68,9.2,9.2,63,0.00,SCT,,0.00,WeatherDisplay:10.37,2013-09-30 20:41:00,
2013-09-30 16:46:00,73.4,60.5,29.97,ESE,112,4.6,4.6,64,0.00,SCT,,0.00,WeatherDisplay:10.37,2013-09-30 20:46:00,
2013-09-30 16:51:00,72.7,59.8,29.97,West,270,6.9,6.9,64,0.00,SCT,,0.00,WeatherDisplay:10.37,2013-09-30 20:51:00,
2013-09-30 16:56:00,72.3,59.4,29.97,East,90,6.9,6.9,64,0.00,SCT,,0.00,WeatherDisplay:10.37,2013-09-30 20:56:00,
2013-09-30 17:01:00,72.1,58.8,29.98,NW,315,6.9,6.9,63,0.00,SCT,,0.00,WeatherDisplay:10.37,2013-09-30 21:01:00,
2013-09-30 17:06:00,72.1,58.8,29.97,WNW,292,3.5,3.5,63,0.00,SCT,,0.00,WeatherDisplay:10.37,2013-09-30 21:06:00,
2013-09-30 17:11:00,72.3,59.0,29.97,NW,315,8.1,8.1,63,0.00,SCT,,0.00,WeatherDisplay:10.37,2013-09-30 21:11:00,
2013-09-30 17:17:00,72.5,58.7,29.97,SE,135,6.9,6.9,62,0.00,SCT,,0.00,WeatherDisplay:10.37,2013-09-30 21:17:00,
2013-09-30 17:22:00,72.5,58.7,29.98,NW,315,5.8,5.8,62,0.00,SCT,,0.00,WeatherDisplay:10.37,2013-09-30 21:22:00,
2013-09-30 17:27:00,72.7,58.5,29.98,NE,45,6.9,6.9,61,0.00,SCT,,0.00,WeatherDisplay:10.37,2013-09-30 21:27:00,
2013-09-30 17:32:00,72.7,58.5,29.98,East,90,3.5,3.5,61,0.00,SCT,,0.00,WeatherDisplay:10.37,2013-09-30 21:32:00,
2013-09-30 17:37:00,72.5,57.4,29.98,WNW,292,8.3,8.3,59,0.00,SCT,,0.00,WeatherDisplay:10.37,2013-09-30 21:37:00,
2013-09-30 17:42:00,72.5,57.8,29.99,ESE,112,6.5,6.5,60,0.00,SCT,,0.00,WeatherDisplay:10.37,2013-09-30 21:42:00,
2013-09-30 17:47:00,72.3,57.6,29.98,ENE,68,6.9,6.9,60,0.00,SCT,,0.00,WeatherDisplay:10.37,2013-09-30 21:47:00,
2013-09-30 17:52:00,72.1,57.9,29.99,North,360,2.3,0.0,61,0.00,SCT,,0.00,WeatherDisplay:10.37,2013-09-30 21:52:00,
2013-09-30 17:57:00,72.0,57.4,29.98,East,90,6.9,6.9,60,0.00,SCT,,0.00,WeatherDisplay:10.37,2013-09-30 21:57:00,
2013-09-30 18:02:00,71.8,57.6,29.98,NE,45,3.5,3.5,61,0.00,SCT,,0.00,WeatherDisplay:10.37,2013-09-30 22:02:00,
2013-09-30 18:07:00,71.6,57.0,29.98,NNW,338,0.0,0.0,60,0.00,SCT,,0.00,WeatherDisplay:10.37,2013-09-30 22:07:00,
2013-09-30 18:12:00,71.4,57.2,29.98,North,360,3.5,3.5,61,0.00,SCT,,0.00,WeatherDisplay:10.37,2013-09-30 22:12:00,
2013-09-30 18:17:00,71.1,59.2,29.98,SW,225,0.0,0.0,66,0.00,SCT,,0.00,WeatherDisplay:10.37,2013-09-30 22:17:00,
2013-09-30 18:22:00,70.3,58.8,30.00,SW,225,0.0,0.0,67,0.00,CLR,,0.00,WeatherDisplay:10.37,2013-09-30 22:22:00,
2013-09-30 18:27:00,70.2,59.1,30.00,WSW,248,0.0,0.0,68,0.00,CLR,,0.00,WeatherDisplay:10.37,2013-09-30 22:27:00,
2013-09-30 18:32:00,69.4,58.8,30.00,SE,135,0.0,0.0,69,0.00,CLR,,0.00,WeatherDisplay:10.37,2013-09-30 22:32:00,
2013-09-30 18:37:00,69.1,58.5,30.00,SW,225,0.0,0.0,69,0.00,CLR,,0.00,WeatherDisplay:10.37,2013-09-30 22:37:00,
2013-09-30 18:42:00,68.7,58.1,30.00,West,270,0.0,0.0,69,0.00,CLR,,0.00,WeatherDisplay:10.37,2013-09-30 22:42:00,
2013-09-30 18:47:00,68.2,58.4,30.00,South,180,0.0,0.0,71,0.00,CLR,,0.00,WeatherDisplay:10.37,2013-09-30 22:47:00,
2013-09-30 18:52:00,67.8,58.8,30.00,South,180,0.0,0.0,73,0.00,CLR,,0.00,WeatherDisplay:10.37,2013-09-30 22:52:00,
2013-09-30 18:57:00,67.3,58.7,30.00,WNW,292,0.0,0.0,74,0.00,CLR,,0.00,WeatherDisplay:10.37,2013-09-30 22:57:00,
2013-09-30 19:02:00,66.7,58.5,30.00,South,180,0.0,0.0,75,0.00,CLR,,0.00,WeatherDisplay:10.37,2013-09-30 23:02:00,
2013-09-30 19:07:00,66.6,58.4,30.00,WNW,292,0.0,0.0,75,0.00,CLR,,0.00,WeatherDisplay:10.37,2013-09-30 23:07:00,
2013-09-30 19:12:00,66.2,58.4,30.01,West,270,0.0,0.0,76,0.00,CLR,,0.00,WeatherDisplay:10.37,2013-09-30 23:12:00,
2013-09-30 19:17:00,65.8,58.4,30.00,NNW,338,0.0,0.0,77,0.00,CLR,,0.00,WeatherDisplay:10.37,2013-09-30 23:17:00,
2013-09-30 19:22:00,65.5,58.5,30.02,WNW,292,0.0,0.0,78,0.00,OVC,,0.00,WeatherDisplay:10.37,2013-09-30 23:22:00,
2013-09-30 19:27:00,65.3,58.3,30.02,North,360,0.0,0.0,78,0.00,OVC,,0.00,WeatherDisplay:10.37,2013-09-30 23:27:00,
2013-09-30 19:32:00,65.1,58.1,30.02,NNW,338,0.0,0.0,78,0.00,OVC,,0.00,WeatherDisplay:10.37,2013-09-30 23:32:00,
2013-09-30 19:37:00,64.9,58.6,30.02,WSW,248,0.0,0.0,80,0.00,OVC,,0.00,WeatherDisplay:10.37,2013-09-30 23:37:00,
2013-09-30 19:42:00,64.8,58.8,30.02,West,270,0.0,0.0,81,0.00,OVC,,0.00,WeatherDisplay:10.37,2013-09-30 23:42:00,
2013-09-30 19:47:00,64.6,58.3,30.02,WNW,292,0.0,0.0,80,0.00,OVC,,0.00,WeatherDisplay:10.37,2013-09-30 23:47:00,
2013-09-30 19:52:00,64.4,58.1,30.02,ENE,68,0.0,0.0,80,0.00,OVC,,0.00,WeatherDisplay:10.37,2013-09-30 23:52:00,
2013-09-30 19:57:00,64.2,57.9,30.02,West,270,0.0,0.0,80,0.00,OVC,,0.00,WeatherDisplay:10.37,2013-09-30 23:57:00,
2013-09-30 20:02:00,64.2,57.9,30.02,NNW,338,0.0,0.0,80,0.00,OVC,,0.00,WeatherDisplay:10.37,2013-10-01 00:02:00,
2013-09-30 20:07:00,63.9,58.0,30.02,NE,45,0.0,0.0,81,0.00,OVC,,0.00,WeatherDisplay:10.37,2013-10-01 00:07:00,
2013-09-30 20:12:00,63.7,57.8,30.02,NW,315,0.0,0.0,81,0.00,OVC,,0.00,WeatherDisplay:10.37,2013-10-01 00:12:00,
2013-09-30 20:17:00,63.5,57.6,30.02,NNW,338,0.0,0.0,81,0.00,OVC,,0.00,WeatherDisplay:10.37,2013-10-01 00:17:00,
2013-09-30 20:22:00,63.1,57.5,30.02,North,360,0.0,0.0,82,0.00,OVC,,0.00,WeatherDisplay:10.37,2013-10-01 00:22:00,
2013-09-30 20:27:00,63.0,57.4,30.04,North,360,0.0,0.0,82,0.00,FEW,,0.00,WeatherDisplay:10.37,2013-10-01 00:27:00,
2013-09-30 20:32:00,62.8,57.2,30.04,North,360,0.0,0.0,82,0.00,FEW,,0.00,WeatherDisplay:10.37,2013-10-01 00:32:00,
2013-09-30 20:38:00,62.4,56.8,30.04,North,360,0.0,0.0,82,0.00,FEW,,0.00,WeatherDisplay:10.37,2013-10-01 00:38:00,
2013-09-30 20:43:00,62.2,56.6,30.04,North,360,0.0,0.0,82,0.00,FEW,,0.00,WeatherDisplay:10.37,2013-10-01 00:43:00,
2013-09-30 20:48:00,62.1,56.9,30.04,North,360,0.0,0.0,83,0.00,FEW,,0.00,WeatherDisplay:10.37,2013-10-01 00:48:00,
2013-09-30 20:53:00,61.9,56.7,30.04,North,360,0.0,0.0,83,0.00,FEW,,0.00,WeatherDisplay:10.37,2013-10-01 00:53:00,
2013-09-30 20:58:00,61.5,56.6,30.04,North,360,0.0,0.0,84,0.00,FEW,,0.00,WeatherDisplay:10.37,2013-10-01 00:58:00,
2013-09-30 21:03:00,61.3,56.4,30.03,North,360,0.0,0.0,84,0.00,FEW,,0.00,WeatherDisplay:10.37,2013-10-01 01:03:00,
2013-09-30 21:08:00,61.2,56.3,30.03,NW,315,0.0,0.0,84,0.00,FEW,,0.00,WeatherDisplay:10.37,2013-10-01 01:08:00,
2013-09-30 21:13:00,61.0,56.5,30.04,NW,315,0.0,0.0,85,0.00,FEW,,0.00,WeatherDisplay:10.37,2013-10-01 01:13:00,
2013-09-30 21:18:00,60.8,56.3,30.04,NW,315,0.0,0.0,85,0.00,FEW,,0.00,WeatherDisplay:10.37,2013-10-01 01:18:00,
2013-09-30 21:23:00,60.6,56.4,30.04,NW,315,0.0,0.0,86,0.00,CLR,,0.00,WeatherDisplay:10.37,2013-10-01 01:23:00,
2013-09-30 21:28:00,60.3,56.4,30.05,WNW,292,0.0,0.0,87,0.00,CLR,,0.00,WeatherDisplay:10.37,2013-10-01 01:28:00,
2013-09-30 21:33:00,60.3,56.4,30.04,NW,315,0.0,0.0,87,0.00,CLR,,0.00,WeatherDisplay:10.37,2013-10-01 01:33:00,
2013-09-30 21:38:00,60.1,56.2,30.04,NNW,338,0.0,0.0,87,0.00,CLR,,0.00,WeatherDisplay:10.37,2013-10-01 01:38:00,
2013-09-30 21:43:00,60.1,56.5,30.04,NNW,338,0.0,0.0,88,0.00,CLR,,0.00,WeatherDisplay:10.37,2013-10-01 01:43:00,
2013-09-30 21:48:00,59.9,56.3,30.04,NW,315,0.0,0.0,88,0.00,CLR,,0.00,WeatherDisplay:10.37,2013-10-01 01:48:00,
2013-09-30 21:53:00,59.9,56.3,30.05,NNW,338,0.0,0.0,88,0.00,CLR,,0.00,WeatherDisplay:10.37,2013-10-01 01:53:00,
2013-09-30 21:58:00,59.7,56.1,30.04,NNW,338,0.0,0.0,88,0.00,CLR,,0.00,WeatherDisplay:10.37,2013-10-01 01:58:00,
2013-09-30 22:03:00,59.7,56.1,30.04,NNW,338,0.0,0.0,88,0.00,CLR,,0.00,WeatherDisplay:10.37,2013-10-01 02:03:00,
2013-09-30 22:08:00,59.5,56.3,30.04,NNW,338,0.0,0.0,89,0.00,CLR,,0.00,WeatherDisplay:10.37,2013-10-01 02:08:00,
2013-09-30 22:13:00,59.4,56.5,30.05,West,270,0.0,0.0,90,0.00,CLR,,0.00,WeatherDisplay:10.37,2013-10-01 02:13:00,
2013-09-30 22:18:00,59.4,56.5,30.05,WNW,292,0.0,0.0,90,0.00,CLR,,0.00,WeatherDisplay:10.37,2013-10-01 02:18:00,
2013-09-30 22:23:00,59.2,56.3,30.05,NE,45,0.0,0.0,90,0.00,CLR,,0.00,WeatherDisplay:10.37,2013-10-01 02:23:00,
2013-09-30 22:28:00,58.8,56.2,30.05,NW,315,3.5,3.5,91,0.00,CLR,,0.00,WeatherDisplay:10.37,2013-10-01 02:28:00,
2013-09-30 22:33:00,58.8,56.2,30.05,NW,315,0.0,0.0,91,0.00,CLR,,0.00,WeatherDisplay:10.37,2013-10-01 02:33:00,
2013-09-30 22:38:00,58.8,56.2,30.05,NW,315,0.0,0.0,91,0.00,CLR,,0.00,WeatherDisplay:10.37,2013-10-01 02:38:00,
2013-09-30 22:43:00,58.6,56.0,30.05,NNW,338,0.0,0.0,91,0.00,CLR,,0.00,WeatherDisplay:10.37,2013-10-01 02:43:00,
2013-09-30 22:48:00,58.6,56.0,30.05,West,270,0.0,0.0,91,0.00,CLR,,0.00,WeatherDisplay:10.37,2013-10-01 02:48:00,
2013-09-30 22:54:00,58.5,55.9,30.06,West,270,0.0,0.0,91,0.00,CLR,,0.00,WeatherDisplay:10.37,2013-10-01 02:54:00,
2013-09-30 22:59:00,58.5,55.9,30.06,NNW,338,0.0,0.0,91,0.00,CLR,,0.00,WeatherDisplay:10.37,2013-10-01 02:59:00,
2013-09-30 23:04:00,58.3,55.7,30.07,West,270,0.0,0.0,91,0.00,CLR,,0.00,WeatherDisplay:10.37,2013-10-01 03:04:00,
2013-09-30 23:09:00,58.3,55.7,30.07,NNW,338,0.0,0.0,91,0.00,CLR,,0.00,WeatherDisplay:10.37,2013-10-01 03:09:00,
2013-09-30 23:14:00,58.3,55.7,30.06,NNW,338,0.0,0.0,91,0.00,CLR,,0.00,WeatherDisplay:10.37,2013-10-01 03:14:00,
2013-09-30 23:19:00,58.3,55.7,30.06,NNW,338,0.0,0.0,91,0.00,CLR,,0.00,WeatherDisplay:10.37,2013-10-01 03:19:00,
2013-09-30 23:24:00,58.3,56.0,30.07,NW,315,0.0,0.0,92,0.00,CLR,,0.00,WeatherDisplay:10.37,2013-10-01 03:24:00,
2013-09-30 23:29:00,58.1,56.1,30.07,NE,45,0.0,0.0,93,0.00,CLR,,0.00,WeatherDisplay:10.37,2013-10-01 03:29:00,
2013-09-30 23:34:00,58.1,56.1,30.07,NNE,22,0.0,0.0,93,0.00,CLR,,0.00,WeatherDisplay:10.37,2013-10-01 03:34:00,
2013-09-30 23:39:00,58.1,56.1,30.07,NNW,338,0.0,0.0,93,0.00,CLR,,0.00,WeatherDisplay:10.37,2013-10-01 03:39:00,
2013-09-30 23:44:00,58.1,56.1,30.07,NW,315,0.0,0.0,93,0.00,CLR,,0.00,WeatherDisplay:10.37,2013-10-01 03:44:00,
2013-09-30 23:49:00,58.1,56.4,30.07,NW,315,0.0,0.0,94,0.00,CLR,,0.00,WeatherDisplay:10.37,2013-10-01 03:49:00,
2013-09-30 23:54:00,58.1,56.4,30.07,NNW,338,0.0,0.0,94,0.00,CLR,,0.00,WeatherDisplay:10.37,2013-10-01 03:54:00,
2013-09-30 23:59:00,58.1,56.4,30.07,ENE,68,0.0,0.0,94,0.00,CLR,,0.00,WeatherDisplay:10.37,2013-10-01 03:59:00,